Preview of NWS' New Version of Forecast
This preview is not operational and should not be used for support decisions.

Regional Weather Roundup (RWR)

Issued by National Weather Service (NWS)

                            
000
ASUS43 KDMX 200201
RWRIA 

WEATHER ROUNDUP FOR IOWA
NATIONAL WEATHER SERVICE DES MOINES IA
900 PM CDT FRI APR 19 2019

NOTE: "FAIR" INDICATES FEW OR NO CLOUDS BELOW 12,000 FEET WITH NO
SIGNIFICANT WEATHER AND/OR OBSTRUCTIONS TO VISIBILITY.

* - THESE STATIONS ARE NOT NWS STATIONS...THUS NOT UNDER NWS
QUALITY CONTROL.  THEY ALSO DO NOT REPORT WEATHER SUCH 
AS PRECIPITATION OR FOG.  

IAZ001>003-012>014-020>022-031>034-043>046-200300-
   NORTHWEST IOWA
  
CITY           SKY/WX    TMP DP  RH WIND       PRES   REMARKS
CARROLL *      CLEAR     52  34  50 CALM      29.95S                  
CHEROKEE *     CLEAR     50  34  54 CALM      29.95S                  
DENISON *      CLEAR     52  30  43 CALM      29.97S                  
LE MARS *      CLEAR     54  32  43 SE6       29.93S                  
SHELDON *        N/A     54  34  47 S5        29.92S                  
SIOUX CITY     CLEAR     53  32  44 SE7       29.93S                  
SPENCER        CLEAR     52  36  54 CALM      29.94F                  
STORM LAKE *   CLEAR     55  27  33 S3        29.92F                  
$$
 
IAZ055>058-069>071-079>083-090>094-200300-
   SOUTHWEST IOWA
  
CITY           SKY/WX    TMP DP  RH WIND       PRES   REMARKS
ATLANTIC *     CLEAR     48  30  49 CALM      29.96R                  
AUDUBON *      CLEAR     46  36  66 CALM      29.97S                  
CLARINDA *     CLEAR     48  30  49 CALM      29.99R                  
COUNCIL BLFS * CLEAR     57  25  28 CALM      29.96S                  
CRESTON *      CLEAR     52  30  43 NW6       29.96R                  
HARLAN  *      CLEAR     48  30  49 NW5       29.96S                  
LAMONI         CLEAR     53  28  38 N3        29.95R                  
RED OAK *      CLEAR     48  32  53 NW5       29.97R                  
SHENANDOAH *   CLEAR     54  30  40 NW5       29.96S                  
$$
 
IAZ047>049-059>061-072>074-084-200300-
   CENTRAL IOWA
  
CITY           SKY/WX    TMP DP  RH WIND       PRES   REMARKS
AMES           CLEAR     53  31  42 N3        29.95R                  
ANKENY *       CLEAR     52  30  43 MISG      29.96R                  
BOONE *        CLEAR     52  30  43 N6        29.94S                  
CHARITON *     CLEAR     52  27  37 N5        29.94S                  
DES MOINES     PTCLDY    57  27  31 NE3       29.95R                  
GRINNELL*      CLEAR     48  30  49 NW6       29.95S                  
KNOXVILLE *    CLEAR     55  25  30 N6        29.94R                  
MARSHALLTOWN   CLEAR     48  32  53 N8        29.94R                  
NEWTON *       CLEAR     54  28  37 N6        29.95R                  
PELLA *        CLEAR     52  27  38 N3        29.95S                  
PERRY *        FAIR      56  26  31 CALM      29.95S                  
$$
 
IAZ004>006-015-016-023>025-035-036-200300-
   NORTH CENTRAL IOWA
  
CITY           SKY/WX    TMP DP  RH WIND       PRES   REMARKS
ALGONA *       CLEAR     55  30  38 E5        29.94S                  
CLARION *      CLEAR     52  30  43 N6        29.95F                  
ESTHERVILLE    CLEAR     50  33  52 CALM      29.94F                  
FORT DODGE *   CLEAR     45  34  65 NE3       29.96S                  
MASON CITY     CLEAR     45  38  76 E5        29.96S                  
FOREST CITY *  FAIR      50  32  50 CALM      29.96R                  
IOWA FALLS *   FAIR      50  33  52 N3        29.96S                  
$$

IAZ007>011-017>019-026>030-037>042-050>054-066-200300-
   NORTHEAST IOWA
  
CITY           SKY/WX    TMP DP  RH WIND       PRES   REMARKS
CEDAR RAPIDS   FAIR      48  29  47 N7        29.91R                  
CHARLES CITY * FAIR      52  32  46 N6        29.95S                  
CLINTON *      FAIR      47  28  47 N10       29.90R                  
DECORAH *      FAIR      54  21  28 CALM      29.92F                  
DUBUQUE        FAIR      51  24  34 N5        29.90R                  
MONTICELLO *   FAIR      50  28  43 NW8       29.91S                  
OELWEIN *      FAIR      50  28  43 N8        29.94S                  
WATERLOO       FAIR      47  31  53 NW3       29.94S                  
$$
 
IAZ064-065-067-068-078-200300-
   EAST CENTRAL IOWA
  
CITY           SKY/WX    TMP DP  RH WIND       PRES   REMARKS
DAVENPORT      FAIR      49  24  37 N9        29.91R                  
IOWA CITY      FAIR      55  23  28 N6        29.93R                  
MT. PLEASANT * CLEAR     50  28  43 N7        29.91R                  
MUSCATINE *    FAIR      52  27  37 N8        29.91R                  
QUAD CITIES    FAIR      56  23  27 N7        29.88R                  
$$
 
IAZ062-063-075>077-085>089-095>099-200300-
   SOUTHEAST IOWA
  
CITY           SKY/WX    TMP DP  RH WIND       PRES   REMARKS
BURLINGTON     CLEAR     53  27  36 N8        29.88S                  
FAIRFIELD *    CLEAR     46  27  46 N8        29.91R                  
FORT MADISON * CLEAR     52  28  40 N8        29.90S                  
KEOKUK *       CLEAR     54  25  32 N8        29.89R                  
OSKALOOSA *    FAIR      49  27  42 N9        29.93R                  
CENTERVILLE *  FAIR      48  28  46 NW6       29.95R                  
OTTUMWA        CLEAR     47  27  45 N9        29.92S                  
WASHINGTON *   CLEAR     50  27  40 N8        29.92S                  
$$

ABBREVIATIONS USED IN REMARKS
   TC - TEMPERATURES IN CELSIUS
  WCI - WIND CHILL INDEX
   HX - HEAT INDEX
  VSB - VISIBILITY  
$$